CZ-2F R/B

Last updated on Mon May 06 2024 00:02:04 GMT+0000 (Coordinated Universal Time)

1 59592U 24078B 24126.61571319 .03907516 78757-5 37580-3 0 9995 2 59592 41.4471 338.3673 0038418 214.9314 181.2234 16.34583992 1635

Satellite not in orbit